[[{"header":{"parameterUnit":"m.s-1","parameterCategory":1,"la1":30.2991,"la2":30.254,"lo1":-89.0895,"lo2":-89.0444,"dy":0.0017,"dx":0.0017,"nx":28,"ny":28,"refTime":"2025-11-07T09:00:00:Z","depth":0,"parameterNumber":2,"parameterNumberName":"U-component_of_WINDS"},"data":[0,0,0,0,0,0,0,0,0,0,0,0,0,0,0,0,0,0,0,0,0,0,0,0,0,0,0,0,0,0,0,0,0,0,0,0,0,0,0,0,0,0,0,0,0,0,0,0,0,0,0,0,0,0,0,0,0,0,3.2187,3.2188,0,3.2265,3.2266,3.2267,3.219,3.2187,3.2184,3.2181,3.2261,3.2266,3.2271,0,0,0,0,0,0,0,0,0,0,0,0,0,3.1973,3.1977,3.2187,3.2188,3.2189,3.2265,3.2266,3.2267,3.2191,3.2187,3.2183,3.218,3.226,3.2265,3.2271,0,0,0,0,0,0,0,0,0,0,0,0,0,3.206,3.1979,3.2187,3.216,3.2159,3.2264,3.2266,3.2267,3.2191,3.2187,3.2182,3.2178,3.2258,3.2265,3.2272,3.2408,0,0,3.2295,3.2298,0,0,0,0,0,0,0,0,3.2055,3.2068,3.2163,3.2162,3.2161,3.2213,3.2219,3.2315,3.2193,3.2179,3.2181,3.2176,3.2249,3.2257,3.2281,3.2412,3.2416,3.2295,3.23,3.2303,3.2305,0,0,0,0,0,0,0,3.2049,3.2064,3.2218,3.2165,3.2163,3.2144,3.2152,3.2237,3.2238,3.218,3.2174,3.2185,3.2247,3.2274,3.2283,3.2417,3.2295,3.2302,3.2306,3.2309,3.2663,3.2668,0,0,0,0,0,0,3.2046,3.206,3.2215,3.222,3.2096,3.2152,3.216,3.2201,3.2237,3.2238,3.2188,3.2181,3.2264,3.2274,3.2285,3.2447,3.2303,3.231,3.2314,3.2658,3.2664,3.267,0,0,0,0,0,0,3.2042,3.2061,3.2212,3.2138,3.2156,3.216,3.2207,3.2205,3.2232,3.2244,3.2244,3.2216,3.2261,3.2275,3.2378,3.2449,3.2313,3.232,3.2653,3.266,3.2667,3.2772,0,0,0,0,0,0,3.2036,3.206,3.2111,3.214,3.2161,3.2304,3.2211,3.221,3.2245,3.2235,3.2269,3.2271,3.2258,3.2368,3.2386,3.2456,3.2326,3.2646,3.2656,3.2665,3.2762,3.2782,3.2799,0,0,0,0,0,3.2029,3.2138,3.2114,3.2134,3.2225,3.2309,3.232,3.2304,3.2251,3.2303,3.231,3.227,3.2438,3.2379,3.2399,3.2473,3.2642,3.2653,3.2664,3.2754,3.2778,3.2799,0,0,0,0,0,0,3.2117,3.2141,3.2115,3.2237,3.2272,3.2296,3.2361,3.233,3.238,3.2369,3.2346,3.2355,3.2464,3.2479,3.2412,3.2606,3.2531,3.2547,3.2593,3.2616,3.2634,3.2628,3.2332,0,0,0,0,0,3.2151,3.2217,3.2234,3.234,3.2358,3.2357,3.2392,3.2377,3.2411,3.2425,3.2441,3.2476,3.2536,3.2577,3.2634,3.2764,3.277,3.2825,3.2843,3.2858,3.2872,3.2942,3.2966,3.2706,3.2706,3.2706,0,0,3.2221,3.2242,3.2285,3.2358,3.2383,3.2451,3.237,3.2445,3.2496,3.2437,3.2535,3.2548,3.2586,3.2704,3.2756,3.2719,3.2945,3.2872,3.2884,3.289,3.2956,3.298,3.3002,3.2714,3.2713,3.2711,0,0,3.2384,3.2407,3.2498,3.2524,3.2563,3.2561,3.2583,3.2612,3.2618,3.2717,3.2674,3.2734,3.2839,3.2867,3.2896,3.307,3.3035,3.3089,3.3185,3.3254,3.3274,3.3292,3.3354,3.3377,3.3103,3.3103,3.3104,0,3.2467,3.2568,3.2548,3.2627,3.2661,3.2611,3.2702,3.2729,3.2784,3.2808,3.2766,3.2897,3.2918,3.3042,3.3085,3.3109,3.3134,3.3085,3.3273,3.3291,3.3307,3.3366,3.339,3.311,3.3109,3.3108,3.3108,0,3.2668,3.2739,3.2807,3.2862,3.2903,3.2988,3.2981,3.3025,3.3006,3.3009,3.311,3.3135,3.3195,3.3224,3.3206,3.3345,3.3321,3.3276,3.32,3.3339,3.3394,3.3416,3.3119,3.3117,3.3115,3.3113,0,0,3.2888,3.2931,3.2956,3.2981,3.302,3.3074,3.3157,3.3216,3.3255,3.3294,3.3363,3.3454,3.3413,3.3445,3.343,3.349,3.3626,3.3438,3.3438,3.3472,3.3781,3.3814,3.3841,3.3603,3.3607,3.3611,3.3778,0,3.3052,3.3196,3.3181,3.3318,3.3383,3.3337,3.3409,3.3441,3.3446,3.3502,3.3507,3.3572,3.3513,3.3532,3.359,3.3598,3.3688,3.3585,3.3667,3.367,3.3659,3.387,3.3905,3.4062,3.3799,3.3803,3.3806,0,3.3262,3.331,3.3454,3.3483,3.351,3.3575,3.3628,3.3683,3.3718,3.3717,3.3754,3.3728,3.3811,3.3734,3.3848,3.3779,3.3811,3.382,3.3826,3.3833,3.3746,3.3882,3.4111,3.4135,3.3839,3.3837,3.3834,0,3.3409,3.3509,3.3607,3.363,3.3666,3.3713,3.3731,3.3761,3.3798,3.3844,3.3868,3.3924,3.3954,3.3998,3.3988,3.3933,3.4105,3.4027,3.4107,3.4108,3.4145,3.4143,3.4383,3.4167,3.4167,3.4166,3.4166,0,3.3593,3.3683,3.3674,3.3734,3.3834,3.3815,3.3914,3.3926,3.3953,3.4016,3.3979,3.4038,3.4022,3.408,3.4073,3.4169,3.4183,3.4185,3.4182,3.4188,3.4188,3.4209,3.4197,3.4172,3.4171,3.417,3.4169,0,3.3773,3.377,3.3875,3.3901,3.391,3.3982,3.4004,3.4062,3.4064,3.4143,3.4161,3.4164,3.4231,3.4226,3.4301,3.4297,3.4415,3.4399,3.4403,3.44,3.448,3.4473,3.4742,3.4776,3.4538,3.454,3.4542,0,3.389,3.3958,3.3992,3.4031,3.4052,3.4116,3.4153,3.4138,3.4178,3.4224,3.4276,3.4339,3.4389,3.4499,3.4508,3.4566,3.4551,3.4641,3.4559,3.4563,3.4552,3.4548,3.4554,3.4657,3.466,3.4662,3.4664,0,3.4099,3.4095,3.415,3.4206,3.4252,3.4295,3.4334,3.4368,3.4357,3.4404,3.4472,3.4511,3.4588,3.4652,3.4707,3.4724,3.4693,3.469,3.4711,3.4718,3.4718,3.4719,3.4447,3.4683,3.4681,3.468,3.4679,3.4678,3.4251,3.431,3.4343,3.4406,3.4434,3.4471,3.4527,3.4536,3.4593,3.4654,3.4642,3.4719,3.4752,3.4823,3.4846,3.4905,3.4873,3.4904,3.4912,3.492,3.4929,3.4708,3.4915,3.4915,3.4914,3.4914,3.4913,0,3.4458,3.4477,3.4536,3.4592,3.4642,3.4608,3.4649,3.4693,3.4761,3.4795,3.4845,3.4924,3.4986,3.5,3.5059,3.5104,3.5091,3.512,3.5117,3.5121,3.4955,3.493,3.513,3.513,3.513,3.513,3.513,3.513,3.4571,3.4668,3.4668,3.4779,3.4797,3.4872,3.4899,3.4933,3.496,3.505,3.5101,3.511,3.5136,3.5197,3.5252,3.5255,3.5278,3.5313,3.531,3.5155,3.5133,3.5112,3.5089,3.5319,3.5319,3.5472,3.5473,3.5474]},{"header":{"parameterUnit":"m.s-1","parameterCategory":1,"la1":30.2991,"la2":30.254,"lo1":-89.0895,"lo2":-89.0444,"dy":0.0017,"dx":0.0017,"nx":28,"ny":28,"refTime":"2025-11-07T09:00:00:Z","depth":0,"parameterNumber":3,"parameterNumberName":"V-component_of_WINDS"},"data":[0,0,0,0,0,0,0,0,0,0,0,0,0,0,0,0,0,0,0,0,0,0,0,0,0,0,0,0,0,0,0,0,0,0,0,0,0,0,0,0,0,0,0,0,0,0,0,0,0,0,0,0,0,0,0,0,0,0,3.1284,3.1285,0,3.1418,3.142,3.1421,3.1418,3.1417,3.1415,3.1413,3.1545,3.155,3.1555,0,0,0,0,0,0,0,0,0,0,0,0,0,3.1017,3.1022,3.1283,3.1285,3.1287,3.1418,3.142,3.1422,3.1419,3.1416,3.1414,3.1412,3.1543,3.1549,3.1555,0,0,0,0,0,0,0,0,0,0,0,0,0,3.1141,3.1024,3.1283,3.1301,3.1304,3.1418,3.142,3.1422,3.1419,3.1416,3.1414,3.1411,3.1541,3.1548,3.1556,3.1658,0,0,3.158,3.1583,0,0,0,0,0,0,0,0,3.1134,3.115,3.1297,3.13,3.1304,3.1399,3.1374,3.1501,3.142,3.1375,3.1413,3.141,3.1498,3.1509,3.154,3.1665,3.167,3.1581,3.1585,3.1589,3.1591,0,0,0,0,0,0,0,3.1125,3.1144,3.1337,3.1299,3.1303,3.1301,3.1315,3.1398,3.145,3.1379,3.1379,3.1395,3.1499,3.1533,3.1543,3.1672,3.158,3.1587,3.1592,3.1595,3.1887,3.189,0,0,0,0,0,0,3.1114,3.1137,3.1332,3.1341,3.1211,3.1308,3.1324,3.1371,3.1449,3.1459,3.1398,3.1395,3.1521,3.1534,3.1548,3.1674,3.1589,3.1596,3.16,3.1884,3.1888,3.1891,0,0,0,0,0,0,3.1108,3.1131,3.1327,3.1239,3.1264,3.1315,3.1368,3.1375,3.1409,3.1463,3.1472,3.1423,3.1519,3.1537,3.1631,3.1678,3.1599,3.1606,3.1881,3.1885,3.189,3.1925,0,0,0,0,0,0,3.11,3.1129,3.117,3.124,3.1269,3.141,3.1371,3.138,3.1423,3.142,3.1489,3.1498,3.1518,3.162,3.1639,3.1687,3.1613,3.1877,3.1883,3.1888,3.192,3.1931,3.194,0,0,0,0,0,3.1091,3.1173,3.1172,3.1196,3.1321,3.1413,3.1429,3.1453,3.1427,3.1467,3.1502,3.1496,3.1669,3.163,3.1651,3.1702,3.1874,3.1881,3.1888,3.1916,3.1929,3.1939,0,0,0,0,0,0,3.1104,3.1183,3.1182,3.129,3.1345,3.1413,3.1465,3.1465,3.1528,3.1523,3.1547,3.1563,3.1658,3.1689,3.1643,3.1805,3.1768,3.178,3.1782,3.1795,3.1804,3.1795,3.1619,0,0,0,0,0,3.112,3.1191,3.1254,3.1343,3.1371,3.1413,3.1454,3.1468,3.1525,3.1548,3.1589,3.1643,3.171,3.1754,3.1818,3.1924,3.1939,3.197,3.1979,3.1987,3.1997,3.2056,3.2071,3.1914,3.1914,3.1914,0,0,3.1153,3.1205,3.1247,3.1347,3.1391,3.1462,3.1433,3.1508,3.1561,3.1558,3.1652,3.1684,3.1745,3.1847,3.1893,3.1876,3.2043,3.1996,3.2002,3.2008,3.2065,3.2079,3.2093,3.1919,3.1918,3.1917,0,0,3.125,3.1296,3.1376,3.1421,3.149,3.1517,3.1536,3.1604,3.1626,3.172,3.172,3.1781,3.1896,3.194,3.1978,3.2091,3.2087,3.2111,3.2162,3.2219,3.2231,3.2242,3.2283,3.2298,3.212,3.2121,3.2121,0,3.1282,3.1391,3.1416,3.1493,3.1537,3.154,3.162,3.1662,3.1747,3.1776,3.1756,3.1901,3.1942,3.2054,3.2082,3.2112,3.2134,3.2104,3.2228,3.2239,3.225,3.2289,3.2305,3.2123,3.2123,3.2123,3.2122,0,3.1427,3.1502,3.1558,3.1643,3.1692,3.177,3.1806,3.1853,3.1862,3.1891,3.1986,3.2036,3.2111,3.2138,3.2146,3.2251,3.2239,3.2223,3.2186,3.2267,3.2304,3.232,3.2127,3.2126,3.2125,3.2124,0,0,3.1537,3.1635,3.1656,3.1695,3.177,3.1828,3.1905,3.1981,3.2021,3.2078,3.2144,3.2241,3.2227,3.2269,3.2282,3.2332,3.242,3.231,3.2312,3.233,3.2539,3.2552,3.2569,3.2417,3.242,3.2423,3.2534,0,3.1642,3.1783,3.1808,3.193,3.2,3.2004,3.2071,3.2124,3.2152,3.2214,3.2244,3.2314,3.229,3.2315,3.2365,3.2399,3.2463,3.2391,3.2477,3.248,3.2464,3.2589,3.2602,3.2706,3.2549,3.2552,3.2553,0,3.1785,3.185,3.1979,3.2047,3.2077,3.2137,3.2209,3.2268,3.2327,3.2344,3.2393,3.24,3.2479,3.2437,3.2546,3.2497,3.2533,3.2555,3.2559,3.2569,3.2523,3.2603,3.2739,3.2755,3.2577,3.2575,3.2573,0,3.1853,3.1972,3.2066,3.2099,3.2179,3.2222,3.2257,3.2313,3.2358,3.2419,3.2448,3.2516,3.2554,3.2606,3.2632,3.2599,3.2739,3.2699,3.2755,3.2754,3.2785,3.2783,3.293,3.2806,3.2806,3.2806,3.2805,0,3.1969,3.2049,3.2098,3.2156,3.2245,3.2271,3.2358,3.2391,3.2442,3.2505,3.251,3.2569,3.2598,3.266,3.268,3.2767,3.2783,3.2799,3.2803,3.28,3.2798,3.2825,3.2819,3.281,3.2809,3.2808,3.2807,0,3.2062,3.2098,3.22,3.2269,3.2288,3.235,3.2408,3.2463,3.2491,3.2571,3.2591,3.2635,3.2709,3.2739,3.2828,3.2841,3.2942,3.294,3.2923,3.2925,3.2979,3.2974,3.3149,3.3174,3.3033,3.3034,3.3035,0,3.2134,3.2196,3.2272,3.2316,3.2353,3.2423,3.2469,3.2496,3.2543,3.2616,3.2662,3.2736,3.2797,3.2914,3.2953,3.3021,3.3022,3.3078,3.3032,3.3026,3.3024,3.3021,3.3027,3.3087,3.3089,3.309,3.3091,0,3.2259,3.2274,3.2342,3.2416,3.2471,3.2529,3.2586,3.2621,3.2657,3.2709,3.2787,3.2834,3.2927,3.3,3.3071,3.3104,3.3104,3.3105,3.3122,3.3119,3.3107,3.3116,3.2948,3.3101,3.31,3.3099,3.3099,3.3098,3.2345,3.24,3.2463,3.2537,3.2584,3.2637,3.2693,3.273,3.2795,3.2875,3.2886,3.2968,3.3025,3.312,3.3157,3.322,3.3205,3.3229,3.3235,3.3241,3.3246,3.3096,3.3233,3.3232,3.3232,3.3232,3.3232,0,3.2471,3.2512,3.258,3.2662,3.272,3.2717,3.2779,3.2828,3.2901,3.2956,3.3016,3.3104,3.3176,3.322,3.3292,3.3334,3.3335,3.3352,3.3349,3.3357,3.3254,3.3233,3.3349,3.3349,3.3349,3.3349,3.3349,3.3349,3.2544,3.2638,3.2661,3.2778,3.2817,3.29,3.2936,3.2985,3.3029,3.3128,3.3189,3.3218,3.3268,3.3344,3.3408,3.3419,3.3446,3.3463,3.3473,3.3376,3.3364,3.3353,3.3333,3.3468,3.3469,3.3571,3.3572,3.3573]}]]